• In Hungary
  • List of Countries
  • For 7 days
  • Water Temperature
  • Satellite Maps
  • Weather Map
  • News
  • Weather Widgets
  • user-avatar
    Login

    Hourly Weather Cergowa

    Today, 22 September, Saturday

    Time Temperature Precipitation Wind Pressure Humidity
    00:00 +17°C° 0 mm 4 mps 728 mmHg 64%
    01:00 +17°C° 0 mm 3 mps 728 mmHg 64%
    02:00 +17°C° 0 mm 3 mps 728 mmHg 63%
    03:00 +17°C° 0 mm 3 mps 729 mmHg 62%
    04:00 +17°C° 0 mm 3 mps 729 mmHg 61%
    05:00 +16°C° 0.3 mm 3 mps 730 mmHg 70%
    06:00 +14°C° 0.3 mm 4 mps 730 mmHg 78%
    07:00 +13°C° 0 mm 5 mps 731 mmHg 85%
    08:00 +12°C° 0.9 mm 4 mps 732 mmHg 86%
    09:00 +11°C° 0.9 mm 3 mps 732 mmHg 86%
    10:00 +11°C° 0.9 mm 3 mps 733 mmHg 87%
    11:00 +12°C° 1.3 mm 2 mps 733 mmHg 88%
    12:00 +10°C° 1.3 mm 2 mps 733 mmHg 88%
    13:00 +11°C° 1.3 mm 1 mps 733 mmHg 88%
    14:00 +12°C° 0.2 mm 1 mps 733 mmHg 83%
    15:00 +13°C° 0.2 mm 1 mps 733 mmHg 77%
    16:00 +13°C° 0.2 mm 1 mps 733 mmHg 72%
    17:00 +12°C° 0 mm 1 mps 733 mmHg 76%
    18:00 +10°C° 0 mm 2 mps 733 mmHg 79%
    19:00 +9°C° 0 mm 2 mps 733 mmHg 83%
    20:00 +9°C° 0 mm 2 mps 733 mmHg 82%
    21:00 +9°C° 0 mm 2 mps 733 mmHg 81%
    22:00 +10°C° 0 mm 2 mps 733 mmHg 80%
    23:00 +10°C° 0 mm 2 mps 733 mmHg 79%

    Tomorrow, 23 September, Sunday

    Time Temperature Precipitation Wind Pressure Humidity
    00:00 +10°C° 0 mm 2 mps 733 mmHg 79%
    01:00 +10°C° 0 mm 2 mps 733 mmHg 79%
    02:00 +9°C° 0 mm 2 mps 733 mmHg 80%
    03:00 +9°C° 0 mm 2 mps 733 mmHg 81%
    04:00 +9°C° 0 mm 2 mps 732 mmHg 82%
    05:00 +9°C° 0 mm 2 mps 732 mmHg 81%
    06:00 +10°C° 0 mm 2 mps 732 mmHg 80%
    07:00 +10°C° 0 mm 3 mps 732 mmHg 79%
    08:00 +12°C° 0 mm 3 mps 732 mmHg 71%
    09:00 +14°C° 0 mm 3 mps 732 mmHg 63%
    10:00 +15°C° 0 mm 4 mps 732 mmHg 56%
    11:00 +17°C° 0 mm 4 mps 732 mmHg 54%
    12:00 +17°C° 0 mm 4 mps 732 mmHg 53%
    13:00 +18°C° 0 mm 4 mps 731 mmHg 52%
    14:00 +17°C° 0 mm 4 mps 731 mmHg 56%
    15:00 +17°C° 0 mm 3 mps 730 mmHg 59%
    16:00 +17°C° 0 mm 3 mps 729 mmHg 63%
    17:00 +16°C° 0.1 mm 3 mps 729 mmHg 65%
    18:00 +14°C° 0.1 mm 4 mps 728 mmHg 67%
    19:00 +13°C° 0.1 mm 4 mps 727 mmHg 69%
    20:00 +14°C° 0.1 mm 5 mps 726 mmHg 66%
    21:00 +14°C° 0.1 mm 6 mps 725 mmHg 63%
    22:00 +15°C° 0.1 mm 8 mps 724 mmHg 61%
    23:00 +13°C° 0.5 mm 8 mps 723 mmHg 67%

    Day after tomorrow, 24 September, Monday

    Time Temperature Precipitation Wind Pressure Humidity
    00:00 +13°C° 0.5 mm 8 mps 723 mmHg 73%
    01:00 +13°C° 0.5 mm 8 mps 722 mmHg 80%
    02:00 +14°C° 1.9 mm 7 mps 721 mmHg 84%
    03:00 +14°C° 1.9 mm 6 mps 721 mmHg 88%
    04:00 +14°C° 1.9 mm 6 mps 721 mmHg 92%
    05:00 +13°C° 1.1 mm 6 mps 722 mmHg 91%
    06:00 +10°C° 1.1 mm 7 mps 724 mmHg 89%
    07:00 +7°C° 1.1 mm 8 mps 725 mmHg 88%
    08:00 +8°C° 0.3 mm 7 mps 726 mmHg 86%
    09:00 +8°C° 0.3 mm 7 mps 728 mmHg 84%
    10:00 +8°C° 0.3 mm 7 mps 729 mmHg 82%
    11:00 +9°C° 0.2 mm 7 mps 730 mmHg 77%
    12:00 +10°C° 0.2 mm 7 mps 730 mmHg 71%
    13:00 +10°C° 0.2 mm 8 mps 731 mmHg 65%
    14:00 +10°C° 0.1 mm 7 mps 731 mmHg 62%
    15:00 +10°C° 0.1 mm 7 mps 732 mmHg 59%
    16:00 +10°C° 0.1 mm 7 mps 732 mmHg 56%
    17:00 +9°C° 0 mm 6 mps 733 mmHg 59%
    18:00 +7°C° 0 mm 5 mps 733 mmHg 62%
    19:00 +6°C° 0 mm 5 mps 734 mmHg 65%
    20:00 +6°C° 0 mm 5 mps 734 mmHg 66%
    21:00 +6°C° 0 mm 5 mps 734 mmHg 68%
    22:00 +5°C° 0 mm 5 mps 735 mmHg 70%
    23:00 +5°C° 0.1 mm 5 mps 735 mmHg 72%

    25 September, Tuesday

    Time Temperature Precipitation Wind Pressure Humidity
    00:00 +5°C° 0.1 mm 5 mps 736 mmHg 75%
    01:00 +4°C° 0.1 mm 4 mps 736 mmHg 78%
    02:00 +4°C° 0.1 mm 4 mps 736 mmHg 80%
    03:00 +4°C° 0.1 mm 4 mps 737 mmHg 81%
    04:00 +4°C° 0.1 mm 4 mps 737 mmHg 83%
    05:00 +4°C° 0 mm 4 mps 738 mmHg 82%
    06:00 +4°C° 0 mm 4 mps 739 mmHg 80%
    07:00 +3°C° 0 mm 5 mps 739 mmHg 79%
    08:00 +6°C° 0.1 mm 5 mps 740 mmHg 72%
    09:00 +7°C° 0.1 mm 6 mps 740 mmHg 64%
    10:00 +8°C° 0.1 mm 6 mps 741 mmHg 57%
    11:00 +9°C° 0.1 mm 6 mps 741 mmHg 53%
    12:00 +9°C° 0.1 mm 6 mps 741 mmHg 50%
    13:00 +10°C° 0.1 mm 6 mps 741 mmHg 47%
    14:00 +9°C° 0.1 mm 6 mps 741 mmHg 51%
    15:00 +9°C° 0.1 mm 6 mps 741 mmHg 55%
    16:00 +8°C° 0.1 mm 5 mps 742 mmHg 59%
    17:00 +7°C° 0 mm 4 mps 742 mmHg 65%
    18:00 +7°C° 0 mm 3 mps 743 mmHg 71%
    19:00 +5°C° 0 mm 2 mps 743 mmHg 77%
    20:00 +5°C° 0 mm 2 mps 744 mmHg 78%
    21:00 +4°C° 0 mm 2 mps 744 mmHg 80%
    22:00 +4°C° 0 mm 2 mps 745 mmHg 81%
    23:00 +3°C° 0 mm 2 mps 745 mmHg 82%

    26 September, Wednesday

    Time Temperature Precipitation Wind Pressure Humidity
    00:00 +4°C° 0 mm 1 mps 745 mmHg 83%
    01:00 +4°C° 0 mm 1 mps 745 mmHg 84%
    02:00 +3°C° 0 mm 1 mps 745 mmHg 84%
    03:00 +3°C° 0 mm 1 mps 745 mmHg 84%
    04:00 +3°C° 0 mm 1 mps 745 mmHg 84%
    05:00 +4°C° 0 mm 1 mps 745 mmHg 80%
    06:00 +5°C° 0 mm 1 mps 746 mmHg 75%
    07:00 +6°C° 0 mm 1 mps 746 mmHg 71%
    08:00 +8°C° 0 mm 1 mps 746 mmHg 62%
    09:00 +9°C° 0 mm 2 mps 746 mmHg 53%
    10:00 +13°C° 0 mm 2 mps 745 mmHg 43%
    11:00 +13°C° 0 mm 2 mps 745 mmHg 41%
    12:00 +13°C° 0 mm 3 mps 744 mmHg 39%
    13:00 +14°C° 0 mm 3 mps 744 mmHg 36%
    14:00 +14°C° 0 mm 3 mps 743 mmHg 40%
    15:00 +13°C° 0 mm 3 mps 743 mmHg 44%
    16:00 +14°C° 0 mm 2 mps 742 mmHg 48%
    17:00 +11°C° 0 mm 3 mps 742 mmHg 50%
    18:00 +10°C° 0 mm 3 mps 742 mmHg 51%
    19:00 +9°C° 0 mm 3 mps 742 mmHg 53%
    20:00 +9°C° 0 mm 3 mps 742 mmHg 55%
    21:00 +8°C° 0 mm 3 mps 741 mmHg 57%
    22:00 +8°C° 0 mm 3 mps 741 mmHg 58%
    23:00 +7°C° 0 mm 3 mps 741 mmHg 59%

    27 September, Thursday

    Time Temperature Precipitation Wind Pressure Humidity
    00:00 +7°C° 0 mm 3 mps 741 mmHg 61%
    01:00 +5°C° 0 mm 3 mps 740 mmHg 62%
    02:00 +5°C° 0 mm 3 mps 740 mmHg 63%
    03:00 +4°C° 0 mm 3 mps 740 mmHg 63%
    04:00 +4°C° 0 mm 3 mps 739 mmHg 64%
    05:00 +4°C° 0 mm 3 mps 739 mmHg 62%
    06:00 +5°C° 0 mm 3 mps 739 mmHg 60%
    07:00 +5°C° 0 mm 3 mps 738 mmHg 58%
    08:00 +8°C° 0 mm 4 mps 738 mmHg 54%
    09:00 +11°C° 0 mm 4 mps 738 mmHg 49%
    10:00 +13°C° 0 mm 4 mps 738 mmHg 44%
    11:00 +14°C° 0 mm 4 mps 737 mmHg 42%
    12:00 +15°C° 0 mm 4 mps 737 mmHg 40%
    13:00 +16°C° 0 mm 5 mps 736 mmHg 39%
    14:00 +17°C° 0 mm 4 mps 736 mmHg 41%
    15:00 +17°C° 0 mm 4 mps 736 mmHg 44%
    16:00 +16°C° 0 mm 3 mps 735 mmHg 47%
    17:00 +14°C° 0 mm 3 mps 735 mmHg 49%
    18:00 +13°C° 0 mm 3 mps 735 mmHg 51%
    19:00 +11°C° 0 mm 3 mps 735 mmHg 54%
    20:00 +11°C° 0 mm 3 mps 735 mmHg 54%
    21:00 +12°C° 0 mm 2 mps 735 mmHg 55%
    22:00 +12°C° 0 mm 2 mps 735 mmHg 55%
    23:00 +12°C° 0 mm 2 mps 734 mmHg 55%
    Show more